Home   Weather   Bodø   Past weeks

Flag for Norway Past Weather in Bodø, Norway — Yesterday and Last 2 Weeks

Now
48 °F

Light rain. Partly sunny.


Feels Like: 41 °F
Forecast: 51 / 56 °F
Wind: 21 mph from East

Location: Bodo Vi

Current Time: Aug 31, 2016 at 8:26:37 AM

Latest Report: Aug 31, 2016 at 7:50 AM


Visibility: N/A

Pressure: 29.62 "Hg

Humidity: 87%

Dew Point: 45 °F

Location of BodøLocation

Past Weather in Bodø — Graph

°F

Bodø Temperature Yesterday

Maximum temperature yesterday: 55 °F (at 3:50 PM)
Minimum temperature yesterday: 48 °F (at 5:50 AM)
Average temperature yesterday: 51 °F

High & Low Weather Summary for the Past Weeks

 TemperatureHumidityPressure
High70 °F (Aug 18, 12:50 PM)100% (Aug 16, 6:20 AM)30.27 "Hg (Aug 16, 6:20 AM)
Low45 °F (Aug 28, 6:20 AM)52% (Aug 18, 1:50 AM)29.42 "Hg (Aug 27, 5:20 AM)
Average55 °F78%29.98 "Hg
* Reported Aug 16 6:20 AM — Aug 31 6:50 AM, Bodø, Weather by CustomWeather, © 2016

Note: Actual official high and low records may vary slightly from our data, if they occured in-between our weather recording intervals... More about our weather records

Advertising

Bodø Weather History for the Previous 24 Hours

Scroll right to see more
 ConditionsComfort  
Time TempWeatherWind HumidityBarometerVisibility
6:50 AM
Wed, Aug 31
48 °FLight rain. Partly sunny.18 mph82%29.65 "HgN/A
6:20 AM48 °FLight rain. Passing clouds.20 mph82%29.68 "HgN/A
5:50 AM48 °FPassing clouds.21 mph82%29.68 "HgN/A
5:20 AM48 °FPassing clouds.21 mph82%29.71 "HgN/A
4:50 AM48 °FPartly cloudy.20 mph82%29.71 "HgN/A
3:50 AM46 °FPassing clouds.15 mph87%29.74 "HgN/A
2:50 AM46 °FPassing clouds.15 mph93%29.77 "HgN/A
1:50 AM46 °FPassing clouds.15 mph93%29.80 "HgN/A
12:50 AM46 °FPassing clouds.12 mph93%29.80 "HgN/A
11:50 PM
Tue, Aug 30
48 °FPassing clouds.9 mph87%29.80 "HgN/A
11:20 PM48 °FPassing clouds.8 mph87%29.80 "HgN/A
10:50 PM48 °FPassing clouds.7 mph87%29.80 "HgN/A
10:20 PM48 °FPassing clouds.6 mph87%29.80 "HgN/A
9:50 PM50 °FPassing clouds.5 mph88%29.80 "HgN/A
9:20 PM50 °FPassing clouds.5 mph82%29.80 "HgN/A
8:50 PM50 °FPassing clouds.6 mph82%29.80 "HgN/A
8:20 PM50 °FPassing clouds.6 mph82%29.80 "HgN/A
7:50 PM52 °FPassing clouds.6 mph77%29.80 "HgN/A
7:20 PM52 °FPassing clouds.7 mph77%29.80 "HgN/A
6:50 PM54 °FPassing clouds.8 mph72%29.80 "HgN/A
6:20 PM54 °FPassing clouds.8 mph72%29.80 "HgN/A
5:50 PM54 °FPassing clouds.10 mph72%29.80 "HgN/A
5:20 PM54 °FPassing clouds.10 mph72%29.80 "HgN/A
4:50 PM54 °FPassing clouds.12 mph72%29.80 "HgN/A
4:20 PM54 °FPassing clouds.14 mph72%29.77 "HgN/A
3:50 PM55 °FPassing clouds.12 mph72%29.77 "HgN/A
3:20 PM54 °FPassing clouds.12 mph77%29.77 "HgN/A
2:50 PM54 °FScattered clouds.13 mph72%29.77 "HgN/A
2:20 PM54 °FScattered showers. Scattered clouds.13 mph82%29.74 "HgN/A
1:50 PM54 °FBroken clouds.9 mph77%29.74 "HgN/A
1:20 PM54 °FBroken clouds.12 mph82%29.74 "HgN/A
12:50 PM54 °FBroken clouds.15 mph82%29.74 "HgN/A
12:20 PM54 °FBroken clouds.16 mph88%29.71 "HgN/A
11:50 AM52 °FSprinkles. Broken clouds.15 mph88%29.71 "HgN/A
11:20 AM52 °FBroken clouds.17 mph88%29.68 "HgN/A
10:20 AM50 °FScattered showers. Scattered clouds.13 mph94%29.68 "HgN/A
9:50 AM50 °FScattered showers. Scattered clouds.8 mph100%29.68 "HgN/A
9:20 AM50 °FSprinkles. Broken clouds.10 mph94%29.65 "HgN/A
8:50 AM48 °FRain showers. Broken clouds.7 mph100%29.65 "HgN/A
8:20 AM48 °FRain showers. Broken clouds.7 mph100%29.65 "HgN/A
Weather by CustomWeather, © 2016

See weather overviewHow to use our weather pages